Regional Weather Roundup
Issued by NWS

Home | Current Version | Previous Version | Graphics & Text | Print | Product List | Glossary On
Versions: 1 2 3 4 5 6 7 8 9 10 11 12 13 14 15 16 17 18 19 20 21 22 23 24 25 26 27
000
ASUS45 KSLC 210610
RWRUT

UTAH REGIONAL WEATHER ROUNDUP
NATIONAL WEATHER SERVICE SALT LAKE CITY UT
1200 AM MDT THU SEP 21 2017

UTZ001>011-023>025-210700-

NORTHERN UTAH

CITY           SKY/WX    TMP DP  RH WIND       PRES   REMARKS
BRIGHAM CITY   CLOUDY    56  37  49 NW14      29.68S
HILL AFB       CLOUDY    53  41  64 N6        29.69R
LOGAN          CLOUDY    53  41  63 N17G28    29.72R
OGDEN          MOCLDY    54  42  64 NW10      29.67R
SALT LAKE CITY MOCLDY    58  43  57 N21       29.69R
TOOELE VALLEY  PTCLDY    54  41  62 SW6       29.71S
WENDOVER       CLOUDY    56  37  49 NW31G39   29.69R
HEBER CITY     MOCLDY    68  30  24 S15G23    29.70S
WEST JORDAN    PTCLDY    56  45  66 NW17G24   29.71R

$$

UTZ011>015-024>027-210700-

CENTRAL/NORTHEAST UTAH

CITY           SKY/WX    TMP DP  RH WIND       PRES   REMARKS
PROVO AIRPORT  PTCLDY    68  41  37 S17       29.67S
MOAB/CANYONLAN CLEAR     66  31  27 SW7       29.73S
DELTA          CLEAR     64  34  32 S15G23    29.72S
PRICE          CLEAR     61  33  35 VRB3      29.79R
ROOSEVELT      CLEAR     50  41  71 W6        29.74S
VERNAL         CLEAR     65  33  30 SW10      29.71F

$$

UTZ013>016-019>022-027-210700-

SOUTHERN UTAH

CITY           SKY/WX    TMP DP  RH WIND       PRES   REMARKS
BRYCE CANYON   CLEAR     56  34  43 S20       29.99F
CEDAR CITY     CLEAR     65  33  30 S22G29    29.84R
MILFORD        CLEAR     60  38  43 SE14      29.76R
ST GEORGE      PTCLDY    73  38  27 VRB3      29.73F
HANKSVILLE     CLEAR     73  28  19 SW12G21   29.76F
BLANDING         N/A     62  32  33 SW8       30.00S

$$

REGIONAL REPORTS     COLORADO/ARIZONA

CITY           SKY/WX    TMP DP  RH WIND       PRES   REMARKS
CRAIG, CO      CLEAR     44  36  73 CALM      29.83F
GRAND JUNCTION CLEAR     65  30  27 SE12      29.78S
RIFLE, CO      CLEAR     63  29  27 E7        29.83S
MONTROSE, CO   CLEAR     69  26  20 MISG      29.92R
CORTEZ, CO     CLEAR     59  31  34 S10       29.98S
PAGE, AZ       CLEAR     74  32  21 SW8       29.82S
GRAND CANYON   CLEAR     57  38  48 SW10      30.04S
KINGMAN, AZ    CLEAR     69  41  36 CALM      29.83S
FLAGSTAFF, AZ  CLEAR     54  37  52 SW8       30.07F

$$

REGIONAL REPORTS    NEVADA/IDAHO/WYOMING

CITY           SKY/WX    TMP DP  RH WIND       PRES   REMARKS
LAS VEGAS, NV  CLEAR     81  41  24 S12G26    29.65F
ELY, NY        PTCLDY    63  34  33 S20G31    29.74R
ELKO, NV       LGT RAIN  43  40  89 W9        29.83R
POCATELLO, ID  LGT RAIN  47  46  97 SW6       29.79R
BURLEY, ID     RAIN      46  45  96 W7        29.76S
FORT BRIDGER,    N/A     49  35  57 NE5       29.78F
EVANSTON, WY   CLOUDY    49  37  63 N6        29.75F
ROCK SPRINGS,  CLOUDY    52  35  52 VRB5      29.74F
KEMMERER, WY     N/A     45  34  65 N9        29.77S

$$




USA.gov is the U.S. government's official web portal to all federal, state and local government web resources and services.